Starlink 11476

operational
NORAD ID: 62228 Int'l Des: 2024-231 Owner: SPXS Country: US Constellation: starlink
LEOCIRCULAR

Starlink 11476について

説明を読み込み中...

リアルタイム位置

3D地球を読み込み中...

次回通過

高度履歴

Altitude vs Time

uPlot chart will show altitude changes over time

軌道要素

1 62228U 24231L 25259.98496371 .00213695 00000-0 17210-2 0 9991
2 62228 53.1562 237.2378 0001771 45.2653 314.8509 15.69746625 46143
Epoch: Sep 16, 2025 • Age: 22 hours

現在のステータス

高度 363.3 km
速度 7.70 km/s
衛星直下点 49.93°N, 21.99°W
打ち上げ日 Dec 5, 2024
運用期間 0.7 years
タイプ internet

技術仕様

分類 Payload
質量 960.00 kg
乾燥質量 910.00 kg
総質量 960.00 kg
長さ 0.30 m
直径 4.10 m
スパン 29.00 m
形状 Box + pan
製造者 SPXS
バスタイプ Starlink V2MD
フェーズステータス In Orbit
所有者/国 SPXS/US

大規模コンステレーション

Loading constellations...